Hourly Data Report for September 04, 2017

All times are specified in Local Standard Time (LST). Add 1 hour to adjust for Daylight Saving Time where and when it is observed.

POINT LEPREAU CS
NEW BRUNSWICK

45°04'23.040" N
66°26'57.090" W
6.00 m
8104201
71699
WPE

Download Data

Hourly Data (September 2017)
Hourly Data Report for September 4, 2017
Temp Definition
°C
Dew Point Temp Definition
°C
Rel Hum Definition
%
Wind Dir Definition
10's deg

Wind Spd Definition
km/h
Visibility Definition
km
Stn Press Definition
kPa
Hmdx Definition


Wind Chill Definition


Weather Definition


TIME
00:00 12.8 12.8 100 8 20   100.58     LegendNANA
01:00 13.2 13.0 98 8 19   100.40     LegendNANA
02:00 13.9 13.4 97 8 17   100.20     LegendNANA
03:00 14.5 LegendMM 100 16 34   100.12     LegendNANA
04:00 13.8 13.3 97 19 19   100.07     LegendNANA
05:00 12.8 12.7 99 19 26   99.98     LegendNANA
06:00 12.9 12.4 97 21 30   99.94     LegendNANA
07:00 13.3 13.0 98 22 21   100.04     LegendNANA
08:00 13.6 12.8 95 24 13   100.22     LegendNANA
09:00 13.8 12.8 93 25 12   100.35     LegendNANA
10:00 15.5 13.1 86 25 13   100.45     LegendNANA
11:00 16.9 13.5 80 26 13   100.50     LegendNANA
12:00 17.2 13.7 80 25 12   100.57     LegendNANA
13:00 18.7 14.0 74 23 13   100.57     LegendNANA
14:00 17.8 13.6 77 23 13   100.60     LegendNANA
15:00 17.6 13.5 77 21 14   100.64     LegendNANA
16:00 16.9 14.0 83 22 16   100.65     LegendNANA
17:00 17.1 13.7 81 20 14   100.72     LegendNANA
18:00 15.4 13.0 86 21 15   100.72     LegendNANA
19:00 14.4 12.5 89 23 14   100.77     LegendNANA
20:00 14.0 12.5 91 22 13   100.85     LegendNANA
21:00 14.2 12.6 90 23 13   100.87     LegendNANA
22:00 14.3 12.9 91 20 11   100.88     LegendNANA
23:00 14.6 13.5 93 20 17   100.88     LegendNANA

Notes on Data Quality.

Legend

  • E = Estimated
  • M = Missing
  • NA = Not Available
  • ‡ = Partner data that is not subject to review by the National Climate Archives
Date modified: